Flag for Switzerland Weather past 2 weeks in Sarnen, Obwalden, Switzerland

Now
51 °F

Cool.


Feels Like: 51 °F
Forecast: 53 / 68 °F
Wind: 1 mph from North

Location: Giswil

Current Time: Apr 26, 2015 at 12:58:18 AM

Latest Report: Apr 26, 2015 at 12:00 AM


Visibility: N/A

Pressure: 29.96 "Hg

Humidity: 92%

Dew point: 49 °F

Location of SarnenLocation

Historic Weather in Sarnen — Graph

°F

Sarnen temperature yesterday

Maximum temperature yesterday: 63 °F (at 2:00 PM)
Minimum temperature yesterday: 40 °F (at 2:00 AM)
Average temperature yesterday: 54 °F

Past Weeks' High & Low Weather Summary

 TemperatureHumidityPressure
High73 °F (Apr 15, 5:00 PM)100% (Apr 18, 2:00 AM)30.53 "Hg (Apr 18, 2:00 AM)
Low32 °F (Apr 21, 5:00 AM)24% (Apr 22, 6:00 PM)29.86 "Hg (Apr 24, 7:00 PM)
Average51 °F73%30.18 "Hg
* Reported Apr 10 10:00 PM — Apr 25 10:00 PM, Sarnen, Weather by CustomWeather, © 2015

Note: Actual official high and low records may vary slightly from our data, if they occured in-between our weather recording intervals... More about our weather records

Advertising

Sarnen weather history for previous 24 hours

 ConditionsComfort  
Time TempWeatherWind HumidityBarometerVisibility
10:00 PM
Sat, Apr 25
56 °FCool.5 mph80%29.92 "HgN/A
9:00 PM56 °FCool.1 mph87%29.89 "HgN/A
8:00 PM58 °FCool.1 mph84%29.87 "HgN/A
7:00 PM61 °FCool.1 mph66%29.86 "HgN/A
6:00 PM62 °FCool.1 mph62%29.86 "HgN/A
5:00 PM63 °FMild.1 mph55%29.86 "HgN/A
4:00 PM63 °FMild.2 mph60%29.88 "HgN/A
3:00 PM63 °FMild.2 mph53%29.88 "HgN/A
2:00 PM63 °FMild.1 mph52%29.88 "HgN/A
1:00 PM63 °FMild.3 mph49%29.88 "HgN/A
12:00 PM62 °FRefreshingly cool.1 mph50%29.89 "HgN/A
11:00 AM59 °FRefreshingly cool.1 mph53%29.91 "HgN/A
10:00 AM57 °FCool.1 mph62%29.91 "HgN/A
9:00 AM54 °FCool.No wind79%29.93 "HgN/A
8:00 AM50 °FCool.3 mph87%29.95 "HgN/A
7:00 AM46 °FCool.1 mph89%29.94 "HgN/A
6:00 AM43 °FQuite cool.1 mph93%29.94 "HgN/A
5:00 AM41 °FQuite cool.1 mph94%29.94 "HgN/A
4:00 AM41 °FQuite cool.1 mph93%29.95 "HgN/A
3:00 AM42 °FQuite cool.1 mph92%29.96 "HgN/A
2:00 AM40 °FQuite cool.2 mph94%29.98 "HgN/A
1:00 AM44 °FQuite cool.1 mph89%29.97 "HgN/A
12:00 AM44 °FQuite cool.1 mph89%29.97 "HgN/A
Weather by CustomWeather, © 2015

See weather overviewHow to use our weather pages